Flag for U.S.A. Weather past 2 weeks in Charlottesville, Virginia, U.S.A.

Now
73 °F

Passing clouds.


Feels Like: 73 °F
Forecast: 67 / 87 °F
Wind: No wind

Location: Charlottesville-Albemarle Airport

Current Time: May 29, 2015 at 11:01:34 PM

Latest Report: May 29, 2015 at 9:53 PM


Visibility: 10 mi

Pressure: 30.19 "Hg

Humidity: 79%

Dew point: 66 °F

Location of CharlottesvilleLocation

Historic Weather in Charlottesville — Graph

°F

Charlottesville temperature yesterday

Maximum temperature yesterday: 86 °F (at 12:53 PM)
Minimum temperature yesterday: 65 °F (at 4:53 AM)
Average temperature yesterday: 75 °F

Past Weeks' High & Low Weather Summary

 TemperatureHumidityPressure
High87 °F (May 16, 2:53 PM)97% (May 17, 10:53 PM)30.46 "Hg (May 17, 10:53 PM)
Low50 °F (May 23, 5:53 AM)27% (May 22, 6:53 PM)29.84 "Hg (May 19, 5:53 PM)
Average69 °F69%30.14 "Hg
* Reported May 14 9:53 PM — May 29 9:53 PM, Charlottesville, Weather by CustomWeather, © 2015

Note: Actual official high and low records may vary slightly from our data, if they occured in-between our weather recording intervals... More about our weather records

Advertising

Charlottesville weather history for previous 24 hours

 ConditionsComfort  
Time TempWeatherWind HumidityBarometerVisibility
9:53 PM
Fri, May 29
73 °FPassing clouds.No wind79%30.19 "Hg10 mi
8:53 PM73 °FSunny.No wind79%30.17 "Hg10 mi
7:53 PM76 °FSunny.6 mph69%30.17 "Hg10 mi
6:53 PM80 °FSunny.8 mph60%30.16 "Hg10 mi
5:53 PM80 °FSunny.6 mph56%30.16 "Hg10 mi
5:03 PM77 °FThundershowers. Broken clouds.12 mph71%30.20 "Hg10 mi
4:53 PM80 °FThunderstorms. Scattered clouds.14 mph67%30.17 "Hg10 mi
3:53 PM78 °FThundershowers. Overcast.3 mph84%30.18 "Hg7 mi
2:53 PM81 °FLight rain. Cloudy.8 mph67%30.20 "Hg10 mi
1:53 PM82 °FBroken clouds.6 mph65%30.21 "Hg10 mi
12:53 PM80 °FMostly cloudy.8 mph69%30.23 "Hg9 mi
12:00 PM79 °FPartly sunny.5 mph69%30.27 "Hg8 mi
10:53 AM74 °FLow clouds.5 mph82%30.25 "Hg2 mi
9:53 AM71 °FFog.8 mph87%30.25 "Hg2 mi
8:53 AM74 °FSunny.9 mph76%30.24 "Hg10 mi
7:53 AM71 °FSunny.3 mph78%30.24 "Hg10 mi
6:53 AM64 °FScattered clouds.No wind94%30.23 "Hg8 mi
5:53 AM63 °FFog.No wind97%30.20 "Hg6 mi
4:53 AM65 °FClear.No wind94%30.17 "Hg9 mi
3:53 AM64 °FClear.No wind97%30.17 "Hg9 mi
2:53 AM67 °FClear.No wind93%30.17 "Hg10 mi
1:53 AM67 °FOvercast.3 mph93%30.19 "Hg10 mi
12:53 AM67 °FClear.3 mph93%30.19 "Hg10 mi
11:53 PM
Thu, May 28
68 °FClear.No wind90%30.20 "Hg10 mi
Weather by CustomWeather, © 2015

See weather overviewHow to use our weather pages